User: anonymous   Login
Location: Ash Shall?l al Awwal
(24.0167°N, 32.8667°E)
Time: 14:54:53
(UTC+00:00)
Language:

Cosmos 2242 Rocket - Orbit

View from above orbital plane
View from above orbital plane
View from above satellite
View from above satellite

Ground track
Ground track

The orbit data is extracted from the following two-line orbital elements,

1 22627U 93024B   21135.74631648  .00000069  00000-0  63059-5 0  9991
2 22627  82.5247 213.4174 0022959 343.3545  16.6910 14.78207243513184
Epoch (UTC): 15 May 2021 17:54:41
Eccentricity: 0.0022959
inclination: 82.5247°
perigee height: 619 km
apogee height: 651 km
right ascension of ascending node: 213.4174°
argument of perigee: 343.3545°
revolutions per day: 14.78207243
mean anomaly at epoch: 16.6910°
orbit number at epoch: 51318

The dashed part of the orbit path shows where the satellite is in the earth's shadow,  

DLR